Volver al catálogo

SL-19 DEB

ActivoUNKNOWN
NORAD 23486·DEBRIS·🇷🇺 Russia

Lanzado Dec 26, 1994 desde Baikonur Cosmodrome

Loading…

Próximos Pases (próximas 24 horas)

TLE

ActualizadoSource: Space-Track

Época: Sep 14, 2026, 05:05 UTC

1 23486U 94085J   26257.21221221  .00000220  00000-0  75039-2 0  9994
2 23486  64.9197 340.5856 0190597 223.4069 164.4436 11.25793544613165

Sigue SL-19 DEB en tiempo real con AllMySat

Download on the App Store